Theta_e
353 353 353 353 353 353 353 351 350 351 351 351 350 349 350 350 350 349 349 348 347 346 345 344 344 341 341 339 339 339 339 337 337 337 336 336 332 333 335 334 333 331
354 355 355 355 354 353 353 353 350 351 351 351 351 349 350 349 349 349 348 348 348 346 344 345 343 340 338 339 338 337 337 337 336 339 336 335 334 333 333 334 334 332
355 355 355 354 353 352 353 353 351 352 351 351 351 350 350 350 348 348 348 347 347 346 344 344 343 341 337 338 338 338 338 335 335 337 336 335 334 333 333 334 333 332
355 355 355 355 355 353 353 352 351 352 352 350 350 350 351 351 349 348 348 351 346 347 346 344 343 340 338 337 337 337 338 336 336 337 335 336 335 334 332 332 334 334
354 355 355 356 356 355 354 352 350 351 351 351 351 351 350 350 348 347 347 348 346 346 346 344 342 340 338 337 337 336 337 336 336 336 334 334 335 335 333 333 333 332
355 355 356 356 356 355 353 353 352 351 352 351 351 352 351 350 349 347 347 347 347 345 346 344 342 340 338 337 336 335 336 336 335 335 334 333 333 335 335 333 332 332
355 355 355 356 356 356 354 353 353 352 352 353 352 351 351 350 348 348 347 347 347 345 345 344 342 340 338 338 336 335 335 335 335 335 334 333 333 333 334 333 333 332
355 356 356 356 355 355 354 354 354 353 352 353 352 352 351 351 348 348 348 347 346 345 344 343 342 340 338 338 337 335 335 336 335 334 333 333 333 332 332 333 333 332
356 356 356 356 355 355 355 354 354 354 354 353 353 352 352 351 350 347 347 347 346 345 344 343 342 340 339 337 337 336 335 336 336 334 333 332 332 333 332 332 332 332
355 356 356 356 355 355 355 355 354 354 354 353 353 353 352 351 351 349 347 347 346 345 344 343 342 341 339 338 337 337 335 336 335 334 334 333 332 333 333 333 332 331
355 356 355 356 355 355 355 355 355 354 354 354 353 352 352 352 351 350 347 346 346 345 344 343 342 341 339 338 338 338 337 336 336 335 334 334 333 333 336 333 333 332
355 355 355 355 356 355 355 355 356 354 354 354 353 352 352 352 351 350 349 346 346 345 344 343 343 342 340 339 338 338 337 336 336 335 335 334 334 333 333 333 333 332
355 355 356 356 356 356 356 355 355 355 354 353 354 353 352 351 351 350 349 348 346 346 345 344 343 342 341 339 338 337 337 336 336 335 335 335 334 334 334 333 332 332
355 356 356 356 356 356 356 355 355 355 354 354 354 353 352 352 351 350 350 349 348 347 346 344 343 341 340 340 339 338 337 336 336 336 335 335 335 334 334 333 333 332
356 356 356 356 356 356 355 355 354 354 354 354 353 353 353 353 352 351 350 349 348 347 346 345 343 342 341 340 339 338 337 336 336 336 335 334 334 335 334 334 333 333
355 356 356 356 356 355 355 355 354 354 353 353 352 352 352 352 351 351 350 349 348 347 346 345 344 343 337 328 332 339 338 337 337 336 335 334 334 333 333 333 334 334
355 355 355 355 355 355 355 355 354 353 352 352 352 352 351 351 350 349 349 349 349 348 346 346 345 343 329 326 329 331 337 338 337 336 335 334 334 333 333 333 334 335
354 354 354 354 355 354 355 355 354 353 352 351 350 350 351 351 350 348 348 349 349 349 348 347 346 333 326 326 327 328 332 339 338 337 335 333 333 333 334 334 334 335
354 354 354 354 354 355 355 354 353 352 351 350 349 350 351 350 350 349 348 349 349 348 348 348 347 332 325 324 326 326 329 334 339 337 334 333 333 334 333 333 333 333
354 354 353 353 354 354 354 354 353 352 351 351 350 350 350 350 350 349 350 350 350 349 348 348 347 329 323 322 324 325 327 332 340 338 336 335 335 335 334 334 333 332
354 353 353 353 353 354 354 353 353 352 351 351 350 349 350 350 350 349 350 350 350 350 349 348 348 323 321 321 321 322 325 330 339 338 337 336 336 336 335 334 334 333
353 353 352 352 352 353 353 353 353 352 351 351 350 350 351 352 351 351 350 350 350 350 348 346 343 319 320 320 320 321 324 333 337 337 337 336 336 336 335 334 333 333
354 353 352 352 352 352 352 352 353 352 352 352 350 350 351 351 351 351 351 350 349 347 346 343 334 321 319 318 319 319 322 335 337 337 337 336 335 335 334 334 334 333
353 353 353 352 352 351 351 352 353 353 353 353 351 350 350 351 351 349 348 348 347 345 344 339 337 323 316 315 316 316 325 335 336 336 335 335 334 334 334 333 335 339
353 354 354 353 352 352 353 352 353 353 353 353 353 352 350 349 348 347 345 345 345 343 333 338 338 326 313 315 315 315 327 337 336 335 333 333 332 331 333 334 335 339
352 353 354 354 354 354 354 354 355 354 353 352 351 350 348 348 346 345 344 342 341 339 338 339 336 329 320 313 313 314 322 336 335 333 331 331 332 332 331 333 334 335
Wind_Speed
13 11 12 11 11 10 10 10 8 10 11 10 10 10 11 10 9 10 10 9 9 9 8 9 9 8 7 7 7 7 7 7 7 6 7 6 6 6 6 5 4 5
14 13 11 10 9 9 10 10 10 11 11 11 10 10 9 8 9 10 10 10 10 10 9 9 9 8 7 7 7 8 7 7 7 5 7 7 7 6 6 5 5 4
14 13 13 13 12 12 12 10 11 11 11 11 10 9 9 9 10 10 10 11 10 10 9 9 8 8 8 7 8 8 7 7 7 6 6 7 6 6 6 5 5 5
15 15 14 13 12 12 11 10 10 10 9 9 10 10 9 9 10 11 10 11 10 10 10 9 9 8 7 7 8 8 8 8 8 7 7 6 6 6 6 5 5 4
16 15 13 12 12 11 10 12 13 12 11 11 10 10 10 10 10 10 10 11 10 10 10 10 9 8 8 8 8 8 8 8 7 7 8 7 7 6 6 5 6 6
15 14 14 13 12 12 12 13 13 13 12 11 12 11 11 11 11 12 12 12 11 11 11 10 10 9 9 9 8 8 8 8 8 8 8 8 7 6 6 6 6 6
17 15 15 13 13 13 13 13 12 12 12 12 10 12 11 12 12 13 13 12 12 11 12 11 11 11 9 9 9 8 8 8 7 8 9 8 7 8 7 7 7 7
18 15 14 13 14 13 14 13 13 12 12 11 13 13 12 13 13 12 12 13 13 12 12 12 12 12 11 9 10 10 9 8 8 9 9 9 8 9 9 7 6 6
17 15 14 15 16 14 15 15 13 12 12 13 13 12 12 13 13 12 12 13 13 13 12 12 12 12 11 11 11 11 11 10 9 10 10 10 10 11 10 7 6 6
17 16 16 16 16 15 16 16 14 12 12 13 13 12 13 12 12 13 12 13 13 13 13 13 12 12 11 12 13 13 12 12 11 11 10 11 11 10 9 7 8 7
18 16 17 17 17 15 17 16 15 13 12 14 13 13 13 12 12 12 13 13 14 15 14 13 13 13 13 13 12 12 12 12 11 10 11 11 12 9 6 7 8 8
18 17 18 19 18 17 18 17 15 14 14 13 14 14 13 13 13 13 13 14 14 13 14 14 13 13 14 13 13 11 10 10 10 10 11 11 9 6 7 7 7 6
18 18 18 18 18 18 16 15 16 16 15 15 14 14 14 14 14 14 13 13 14 13 14 14 13 13 12 12 11 10 10 11 11 11 11 9 7 8 8 8 7 7
18 18 18 18 17 16 16 16 15 15 15 14 13 14 15 15 15 15 13 12 12 13 12 11 11 11 11 11 10 11 11 12 12 12 11 8 8 9 8 8 7 7
17 16 16 16 17 16 16 16 16 15 15 13 13 14 13 14 14 13 12 12 11 11 11 10 11 11 10 11 11 12 12 13 13 13 11 10 9 8 7 7 7 7
17 16 16 16 16 17 17 17 16 15 14 14 14 15 14 13 12 12 12 12 12 11 10 10 10 9 13 19 17 14 12 10 11 11 10 10 9 7 6 7 8 8
16 16 16 17 17 17 16 16 16 15 14 14 14 14 14 13 12 12 12 12 13 12 12 11 11 11 17 19 20 18 13 12 12 12 11 10 10 9 8 7 7 8
17 17 17 18 17 17 17 17 15 15 15 14 14 14 12 11 12 13 13 12 12 12 13 12 12 15 19 19 18 18 17 14 13 11 10 10 9 9 9 8 8 8
17 17 18 17 18 18 16 15 15 15 15 14 15 13 10 12 12 12 12 12 12 14 14 13 12 16 17 18 19 21 22 18 11 9 8 9 9 9 9 9 8 8
18 18 18 18 17 16 15 15 15 17 15 13 11 11 11 11 12 13 12 12 13 13 13 12 12 12 17 19 20 22 22 18 9 10 11 10 11 10 9 10 11 10
18 18 19 18 16 15 15 15 16 15 13 12 11 12 12 13 13 13 13 13 12 12 11 11 9 14 18 19 20 20 21 18 11 9 8 8 9 10 11 12 11 10
18 18 18 16 16 15 15 16 15 14 14 11 10 10 10 11 10 11 13 13 12 11 9 9 7 16 18 19 19 20 20 12 8 8 9 9 9 10 11 10 10 9
18 18 17 17 16 16 16 16 15 14 12 10 11 11 12 12 13 13 11 10 10 9 10 7 6 13 18 20 20 19 12 9 9 8 8 10 11 11 10 10 10 10
18 18 17 16 15 16 17 15 13 11 12 11 13 13 13 14 11 9 8 10 11 11 10 9 8 12 18 18 18 18 17 12 10 9 8 8 7 7 8 8 8 13
17 17 16 16 16 16 15 14 14 14 12 11 12 12 11 8 9 9 8 8 9 9 12 12 8 10 16 19 20 20 17 10 10 9 9 8 8 8 7 7 7 8
15 16 16 16 16 15 13 14 12 11 12 12 10 9 9 9 9 9 10 8 7 8 9 9 9 7 11 14 17 18 17 10 8 9 9 9 9 9 8 6 6 6
Wind_Direction
198 196 197 196 197 196 192 188 184 185 192 189 190 193 193 192 180 182 184 184 184 182 183 188 196 194 187 184 183 177 178 185 185 179 183 183 194 190 199 210 195 175
200 199 198 197 198 198 198 191 187 190 193 191 193 190 191 180 184 180 181 184 187 190 186 187 192 189 184 179 178 177 182 183 188 179 181 190 198 192 202 204 207 194
200 201 199 196 196 197 196 192 191 196 193 192 190 187 185 184 180 183 183 183 188 192 192 193 192 188 179 179 175 178 181 184 190 185 181 195 197 196 207 203 215 192
202 202 200 199 197 197 193 191 195 197 191 187 190 187 184 184 182 182 185 186 188 193 195 193 195 190 180 178 170 179 183 185 188 179 189 200 204 198 209 206 212 206
201 202 202 200 200 197 192 196 197 195 191 189 187 187 184 184 185 186 186 191 189 193 195 193 191 191 181 177 174 176 181 184 186 181 189 199 209 199 209 200 216 218
201 202 200 199 199 195 197 202 201 195 191 188 190 187 189 185 187 188 189 191 193 191 193 194 191 192 183 180 180 181 178 182 186 182 191 198 206 208 205 202 209 216
198 199 199 198 200 199 201 205 203 198 195 192 184 193 188 189 190 191 191 193 193 193 192 193 193 191 189 181 183 186 185 185 179 184 191 200 197 208 211 205 207 209
196 196 195 196 200 200 203 206 205 200 196 188 193 194 191 192 192 191 191 192 194 195 194 194 193 190 188 185 187 188 191 190 186 186 192 198 197 206 209 209 202 204
192 194 193 196 200 201 205 206 205 200 194 193 194 195 195 195 193 191 189 191 195 196 195 196 193 192 190 188 191 191 192 194 194 193 195 197 202 209 207 200 202 206
192 192 192 196 201 203 206 207 203 200 195 197 195 193 196 198 195 193 189 193 196 196 197 196 193 195 192 194 194 193 194 196 197 199 202 205 208 209 202 195 205 208
192 190 193 197 201 203 207 206 204 200 198 199 195 198 196 194 197 194 194 195 198 197 196 196 196 193 195 197 198 197 196 196 198 200 205 210 214 208 192 195 205 209
192 191 195 198 201 204 206 205 204 203 200 200 199 199 194 196 195 197 199 199 199 197 196 197 196 196 197 197 197 195 196 196 199 204 209 214 212 196 195 197 200 196
193 194 195 197 201 204 204 203 204 204 201 202 199 199 196 196 199 199 202 200 199 195 197 197 197 197 198 197 194 191 192 195 200 207 212 212 201 198 200 197 191 187
196 196 195 197 200 203 203 203 204 204 205 203 197 199 200 199 198 200 200 199 200 200 199 194 195 197 197 194 191 189 190 198 201 207 210 203 200 204 199 197 188 184
196 197 197 197 198 201 202 204 204 206 205 201 200 202 202 202 200 197 196 200 201 201 198 193 193 196 194 190 189 192 194 197 202 209 205 203 202 199 192 190 186 185
195 196 196 196 197 200 203 203 203 204 203 202 202 202 203 200 198 195 196 197 197 199 197 197 200 199 195 190 190 191 190 194 203 210 208 204 200 187 182 188 186 184
193 197 195 197 199 201 202 201 203 203 203 203 202 201 201 197 193 193 196 197 196 196 197 201 204 204 192 190 193 184 181 194 202 207 205 199 195 190 187 185 182 180
196 195 196 200 198 201 201 201 201 202 204 203 202 200 198 192 193 195 196 195 198 199 201 203 207 202 192 191 182 182 188 196 205 205 197 199 190 181 185 180 172 168
195 195 199 199 200 201 200 197 198 203 205 202 203 199 191 193 196 192 195 195 197 200 204 206 210 201 188 179 183 187 194 199 203 195 190 199 186 182 175 169 169 168
194 197 199 201 200 198 195 196 198 204 204 201 197 193 194 195 196 197 196 197 199 201 204 206 211 181 178 182 187 191 196 199 194 188 195 194 186 176 173 172 173 171
196 197 200 201 198 195 194 197 200 202 199 196 192 192 193 195 197 199 201 202 200 199 202 203 204 167 176 183 188 192 198 198 195 191 183 183 181 178 177 178 178 175
196 198 199 197 195 193 194 197 197 196 196 190 188 192 195 196 199 199 202 201 199 195 193 196 177 165 174 181 187 196 196 194 184 175 180 180 180 182 182 176 168 174
196 196 196 194 193 192 195 195 193 193 191 182 188 190 192 195 199 201 196 189 186 185 183 174 157 175 176 183 189 188 174 186 187 184 183 185 186 180 172 169 173 181
195 194 193 192 190 193 194 193 190 187 187 182 188 189 193 196 192 181 176 178 177 177 173 162 172 183 180 181 181 176 179 182 182 176 178 175 170 162 159 164 174 174
193 192 191 190 191 193 189 185 186 186 183 182 190 187 185 173 164 164 161 166 170 165 161 163 173 182 185 182 180 180 181 179 173 170 164 165 157 161 166 155 163 150
190 191 190 189 190 185 183 185 181 177 177 181 177 167 160 161 157 155 156 157 153 152 164 167 161 165 182 182 180 178 177 162 161 161 169 167 166 157 154 153 159 161